| time (UTC) | temp F | wind direction | speed MPH | gust MPH | rain 1hr in | rain 24hr in | rain mn in | humidity % | barometer mb |
| 20260510182516 | 85 | 135 | 3.0 | 7.0 | 0.00 | 0.00 | 0.00 | 65 | 1014.5 |
| 20260510182015 | 86 | 158 | 4.0 | 11.0 | 0.00 | 0.00 | 0.00 | 60 | 1014.5 |
| 20260510181536 | 85 | 135 | 4.0 | 13.0 | 0.00 | 0.00 | 0.00 | 64 | 1014.6 |
| 20260510181015 | 87 | 135 | 6.0 | 15.0 | 0.00 | 0.00 | 0.00 | 63 | 1014.8 |
| 20260510180515 | 86 | 135 | 4.0 | 8.0 | 0.00 | 0.00 | 0.00 | 62 | 1014.7 |
| 20260510180015 | 86 | 135 | 4.0 | 11.0 | 0.00 | 0.00 | 0.00 | 64 | 1014.8 |
| 20260510175515 | 86 | 135 | 5.0 | 11.0 | 0.00 | 0.00 | 0.00 | 64 | 1014.8 |
| 20260510175015 | 85 | 135 | 4.0 | 13.0 | 0.00 | 0.00 | 0.00 | 66 | 1014.8 |
| 20260510174515 | 85 | 135 | 4.0 | 12.0 | 0.00 | 0.00 | 0.00 | 64 | 1014.9 |
| 20260510174016 | 85 | 158 | 5.0 | 13.0 | 0.00 | 0.00 | 0.00 | 64 | 1015.1 |
| 20260510173515 | 84 | 180 | 5.0 | 14.0 | 0.00 | 0.00 | 0.00 | 65 | 1015.1 |
| 20260510173016 | 84 | 135 | 5.0 | 14.0 | 0.00 | 0.00 | 0.00 | 65 | 1015.1 |
| 20260510172516 | 85 | 135 | 5.0 | 11.0 | 0.00 | 0.00 | 0.00 | 65 | 1015.0 |
| 20260510172015 | 85 | 135 | 5.0 | 12.0 | 0.00 | 0.00 | 0.00 | 66 | 1015.3 |
| 20260510171515 | 84 | 113 | 6.0 | 12.0 | 0.00 | 0.00 | 0.00 | 65 | 1015.3 |
| 20260510171015 | 84 | 135 | 4.0 | 9.0 | 0.00 | 0.00 | 0.00 | 67 | 1015.6 |
| 20260510170515 | 84 | 90 | 5.0 | 13.0 | 0.00 | 0.00 | 0.00 | 67 | 1015.6 |
| 20260510170016 | 84 | 135 | 5.0 | 9.0 | 0.00 | 0.00 | 0.00 | 67 | 1015.4 |
| 20260510165515 | 83 | 158 | 3.0 | 10.0 | 0.00 | 0.00 | 0.00 | 67 | 1015.6 |
| 20260510165015 | 83 | 135 | 5.0 | 10.0 | 0.00 | 0.00 | 0.00 | 69 | 1015.6 |
| 20260510164515 | 83 | 135 | 3.0 | 10.0 | 0.00 | 0.00 | 0.00 | 70 | 1015.6 |
| 20260510164015 | 83 | 90 | 4.0 | 10.0 | 0.00 | 0.00 | 0.00 | 70 | 1015.8 |
| 20260510163515 | 83 | 113 | 4.0 | 9.0 | 0.00 | 0.00 | 0.00 | 71 | 1015.7 |
| 20260510163015 | 82 | 158 | 4.0 | 9.0 | 0.00 | 0.00 | 0.00 | 72 | 1015.8 |
| 20260510162515 | 82 | 135 | 4.0 | 10.0 | 0.00 | 0.00 | 0.00 | 71 | 1015.8 |
| 20260510162036 | 82 | 113 | 5.0 | 10.0 | 0.00 | 0.00 | 0.00 | 72 | 1015.7 |
| 20260510161515 | 82 | 90 | 6.0 | 12.0 | 0.00 | 0.00 | 0.00 | 73 | 1015.6 |
| 20260510161015 | 82 | 90 | 5.0 | 12.0 | 0.00 | 0.00 | 0.00 | 72 | 1015.6 |
| 20260510160516 | 82 | 90 | 4.0 | 10.0 | 0.00 | 0.00 | 0.00 | 73 | 1015.6 |
| 20260510160035 | 82 | 113 | 4.0 | 13.0 | 0.00 | 0.00 | 0.00 | 73 | 1015.7 |
| 20260510155515 | 82 | 113 | 3.0 | 8.0 | 0.00 | 0.00 | 0.00 | 74 | 1015.7 |
| 20260510155015 | 81 | 135 | 4.0 | 10.0 | 0.00 | 0.00 | 0.00 | 74 | 1015.7 |
| 20260510154515 | 80 | 135 | 5.0 | 11.0 | 0.00 | 0.00 | 0.00 | 74 | 1015.8 |
| 20260510154015 | 80 | 135 | 5.0 | 10.0 | 0.00 | 0.00 | 0.00 | 74 | 1015.6 |
| 20260510153515 | 81 | 90 | 4.0 | 9.0 | 0.00 | 0.00 | 0.00 | 73 | 1015.6 |
| 20260510153015 | 81 | 135 | 5.0 | 11.0 | 0.00 | 0.00 | 0.00 | 74 | 1015.6 |
| 20260510152515 | 81 | 90 | 6.0 | 12.0 | 0.00 | 0.00 | 0.00 | 74 | 1015.7 |
| 20260510152036 | 81 | 90 | 4.0 | 9.0 | 0.00 | 0.00 | 0.00 | 75 | 1015.6 |
| 20260510151515 | 80 | 90 | 3.0 | 8.0 | 0.00 | 0.00 | 0.00 | 73 | 1015.6 |
| 20260510151015 | 80 | 90 | 4.0 | 9.0 | 0.00 | 0.00 | 0.00 | 74 | 1015.5 |
| 20260510150515 | 79 | 158 | 3.0 | 7.0 | 0.00 | 0.00 | 0.00 | 75 | 1015.6 |
| 20260510150015 | 79 | 135 | 3.0 | 6.0 | 0.00 | 0.00 | 0.00 | 74 | 1015.5 |
| 20260510145515 | 79 | 90 | 4.0 | 8.0 | 0.00 | 0.00 | 0.00 | 74 | 1015.6 |
| 20260510145015 | 79 | 90 | 2.0 | 6.0 | 0.00 | 0.00 | 0.00 | 76 | 1015.6 |
| 20260510144515 | 78 | 90 | 3.0 | 8.0 | 0.00 | 0.00 | 0.00 | 75 | 1015.5 |
| 20260510144015 | 78 | 90 | 4.0 | 8.0 | 0.00 | 0.00 | 0.00 | 76 | 1015.4 |
| 20260510143535 | 78 | 135 | 1.0 | 5.0 | 0.00 | 0.00 | 0.00 | 77 | 1015.3 |
| 20260510143015 | 78 | 135 | 3.0 | 7.0 | 0.00 | 0.00 | 0.00 | 77 | 1015.2 |
| 20260510142515 | 77 | 135 | 2.0 | 7.0 | 0.00 | 0.00 | 0.00 | 78 | 1015.2 |
| 20260510142015 | 77 | 135 | 1.0 | 5.0 | 0.00 | 0.00 | 0.00 | 78 | 1015.2 |
| 20260510141515 | 76 | 135 | 2.0 | 4.0 | 0.00 | 0.00 | 0.00 | 79 | 1015.2 |
| 20260510141015 | 76 | 158 | 2.0 | 6.0 | 0.00 | 0.00 | 0.00 | 80 | 1015.0 |
| 20260510140535 | 76 | 158 | 2.0 | 7.0 | 0.00 | 0.00 | 0.00 | 80 | 1015.0 |
| 20260510140015 | 76 | 158 | 2.0 | 6.0 | 0.00 | 0.00 | 0.00 | 81 | 1014.8 |
| 20260510135515 | 75 | 135 | 1.0 | 6.0 | 0.00 | 0.00 | 0.00 | 82 | 1014.7 |
| 20260510135015 | 75 | 158 | 2.0 | 6.0 | 0.00 | 0.00 | 0.00 | 81 | 1014.7 |
| 20260510134515 | 75 | 135 | 2.0 | 6.0 | 0.00 | 0.00 | 0.00 | 82 | 1014.8 |
| 20260510134015 | 74 | 158 | 1.0 | 7.0 | 0.00 | 0.00 | 0.00 | 82 | 1014.7 |
| 20260510133515 | 74 | 158 | 2.0 | 4.0 | 0.00 | 0.00 | 0.00 | 83 | 1014.5 |
| 20260510133015 | 74 | 158 | 1.0 | 6.0 | 0.00 | 0.00 | 0.00 | 84 | 1014.3 |
| 20260510132516 | 73 | 158 | 1.0 | 6.0 | 0.00 | 0.00 | 0.00 | 84 | 1014.4 |
| 20260510132017 | 73 | 158 | 1.0 | 4.0 | 0.00 | 0.00 | 0.00 | 85 | 1014.3 |
| 20260510131517 | 73 | 158 | 1.0 | 4.0 | 0.00 | 0.00 | 0.00 | 85 | 1014.1 |
| 20260510131035 | 72 | 158 | 3.0 | 9.0 | 0.00 | 0.00 | 0.00 | 86 | 1014.0 |
| 20260510130517 | 72 | 158 | 2.0 | 6.0 | 0.00 | 0.00 | 0.00 | 88 | 1014.0 |
| 20260510130038 | 71 | 158 | 1.0 | 7.0 | 0.00 | 0.00 | 0.00 | 88 | 1013.8 |
| 20260510125517 | 71 | 158 | 2.0 | 6.0 | 0.00 | 0.00 | 0.00 | 88 | 1013.8 |
| 20260510125057 | 71 | 158 | 2.0 | 8.0 | 0.00 | 0.00 | 0.00 | 88 | 1013.7 |
| 20260510124517 | 70 | 158 | 1.0 | 4.0 | 0.00 | 0.00 | 0.00 | 88 | 1013.6 |
| 20260510124017 | 70 | 135 | 1.0 | 4.0 | 0.00 | 0.00 | 0.00 | 86 | 1013.5 |
| 20260510123537 | 69 | 0.0 | 3.0 | 0.00 | 0.00 | 0.00 | 86 | 1013.4 | |
| 20260510123057 | 69 | 158 | 1.0 | 4.0 | 0.00 | 0.00 | 0.00 | 86 | 1013.5 |
| 20260510122557 | 68 | 180 | 1.0 | 3.0 | 0.00 | 0.00 | 0.00 | 86 | 1013.2 |
| 20260510122017 | 68 | 0.0 | 2.0 | 0.00 | 0.00 | 0.00 | 86 | 1013.2 | |
| 20260510121516 | 68 | 0.0 | 1.0 | 0.00 | 0.00 | 0.00 | 86 | 1013.1 | |
| 20260510121017 | 68 | 0.0 | 2.0 | 0.00 | 0.00 | 0.00 | 86 | 1012.8 | |
| 20260510120535 | 68 | 180 | 1.0 | 4.0 | 0.00 | 0.00 | 0.00 | 86 | 1012.6 |
| 20260510120017 | 68 | 180 | 1.0 | 4.0 | 0.00 | 0.00 | 0.00 | 86 | 1012.5 |
| 20260510115517 | 68 | 180 | 1.0 | 4.0 | 0.00 | 0.00 | 0.00 | 86 | 1012.4 |
| 20260510115017 | 68 | 180 | 1.0 | 5.0 | 0.00 | 0.00 | 0.00 | 88 | 1012.5 |
| 20260510114517 | 68 | 180 | 1.0 | 2.0 | 0.00 | 0.00 | 0.00 | 88 | 1012.4 |
| 20260510114017 | 68 | 180 | 1.0 | 3.0 | 0.00 | 0.00 | 0.00 | 88 | 1012.5 |
| 20260510113517 | 68 | 180 | 1.0 | 3.0 | 0.00 | 0.00 | 0.00 | 88 | 1012.5 |
| 20260510113017 | 68 | 203 | 1.0 | 3.0 | 0.00 | 0.00 | 0.00 | 88 | 1012.4 |
| 20260510112517 | 68 | 203 | 1.0 | 4.0 | 0.00 | 0.00 | 0.00 | 88 | 1012.4 |
| 20260510112017 | 68 | 203 | 1.0 | 3.0 | 0.00 | 0.00 | 0.00 | 88 | 1012.5 |
| 20260510111517 | 68 | 0.0 | 2.0 | 0.00 | 0.00 | 0.00 | 88 | 1012.4 | |
| 20260510111016 | 68 | 180 | 1.0 | 4.0 | 0.00 | 0.00 | 0.00 | 88 | 1012.4 |
| 20260510110517 | 68 | 225 | 1.0 | 4.0 | 0.00 | 0.00 | 0.00 | 88 | 1012.2 |
| 20260510110017 | 68 | 225 | 1.0 | 7.0 | 0.00 | 0.00 | 0.00 | 88 | 1012.2 |
| 20260510105516 | 69 | 203 | 1.0 | 4.0 | 0.00 | 0.00 | 0.00 | 88 | 1012.2 |
| 20260510105017 | 69 | 203 | 1.0 | 2.0 | 0.00 | 0.00 | 0.00 | 88 | 1012.3 |
| 20260510104517 | 69 | 0.0 | 3.0 | 0.00 | 0.00 | 0.00 | 88 | 1012.3 | |
| 20260510104016 | 69 | 203 | 1.0 | 4.0 | 0.00 | 0.00 | 0.00 | 88 | 1012.2 |
| 20260510103516 | 69 | 180 | 1.0 | 7.0 | 0.00 | 0.00 | 0.00 | 88 | 1012.1 |
| 20260510103017 | 69 | 203 | 1.0 | 6.0 | 0.00 | 0.00 | 0.00 | 88 | 1012.1 |
| 20260510102537 | 69 | 180 | 1.0 | 4.0 | 0.00 | 0.00 | 0.00 | 88 | 1012.1 |
| 20260510102016 | 69 | 180 | 2.0 | 6.0 | 0.00 | 0.00 | 0.00 | 88 | 1012.0 |
| 20260510101537 | 69 | 180 | 1.0 | 6.0 | 0.00 | 0.00 | 0.00 | 88 | 1012.1 |
| 20260510101017 | 69 | 203 | 1.0 | 3.0 | 0.00 | 0.00 | 0.00 | 88 | 1012.0 |
| 20260510100516 | 69 | 203 | 1.0 | 6.0 | 0.00 | 0.00 | 0.00 | 88 | 1012.0 |
| 20260510100017 | 69 | 225 | 1.0 | 6.0 | 0.00 | 0.00 | 0.00 | 88 | 1011.7 |
| 20260510095517 | 70 | 180 | 2.0 | 7.0 | 0.00 | 0.00 | 0.00 | 88 | 1011.6 |
| 20260510095016 | 70 | 180 | 3.0 | 9.0 | 0.00 | 0.00 | 0.00 | 88 | 1011.6 |
| 20260510094516 | 70 | 203 | 2.0 | 7.0 | 0.00 | 0.00 | 0.00 | 86 | 1011.7 |
| 20260510094016 | 70 | 180 | 2.0 | 7.0 | 0.00 | 0.00 | 0.00 | 86 | 1011.6 |
| 20260510093517 | 70 | 203 | 2.0 | 9.0 | 0.00 | 0.00 | 0.00 | 86 | 1011.6 |
| 20260510093016 | 70 | 158 | 1.0 | 6.0 | 0.00 | 0.00 | 0.00 | 86 | 1011.6 |
| 20260510092516 | 70 | 203 | 1.0 | 9.0 | 0.00 | 0.00 | 0.00 | 86 | 1011.6 |
| 20260510092016 | 70 | 180 | 1.0 | 6.0 | 0.00 | 0.00 | 0.00 | 86 | 1011.7 |
| 20260510091516 | 70 | 203 | 2.0 | 8.0 | 0.00 | 0.00 | 0.00 | 86 | 1011.6 |
| 20260510091017 | 70 | 203 | 1.0 | 4.0 | 0.00 | 0.00 | 0.00 | 85 | 1011.6 |
| 20260510090516 | 70 | 203 | 2.0 | 6.0 | 0.00 | 0.00 | 0.00 | 85 | 1011.6 |
| 20260510090017 | 70 | 180 | 1.0 | 7.0 | 0.00 | 0.00 | 0.00 | 85 | 1011.7 |
| 20260510085516 | 70 | 225 | 1.0 | 6.0 | 0.00 | 0.00 | 0.00 | 85 | 1011.6 |
| 20260510085016 | 70 | 180 | 2.0 | 7.0 | 0.00 | 0.00 | 0.00 | 85 | 1011.6 |
| 20260510084536 | 70 | 203 | 3.0 | 9.0 | 0.00 | 0.00 | 0.00 | 84 | 1011.7 |
| 20260510084036 | 70 | 203 | 2.0 | 5.0 | 0.00 | 0.00 | 0.00 | 84 | 1011.5 |
| 20260510083517 | 71 | 203 | 1.0 | 5.0 | 0.00 | 0.00 | 0.00 | 84 | 1011.7 |
| 20260510083016 | 71 | 203 | 1.0 | 4.0 | 0.00 | 0.00 | 0.00 | 83 | 1011.8 |
| 20260510082516 | 71 | 225 | 1.0 | 4.0 | 0.00 | 0.00 | 0.00 | 83 | 1011.8 |
| 20260510082016 | 71 | 203 | 1.0 | 6.0 | 0.00 | 0.00 | 0.00 | 82 | 1011.9 |
| 20260510081516 | 71 | 180 | 1.0 | 3.0 | 0.00 | 0.00 | 0.00 | 82 | 1012.1 |
| 20260510081057 | 71 | 180 | 2.0 | 7.0 | 0.00 | 0.00 | 0.00 | 82 | 1012.0 |
| 20260510080536 | 71 | 180 | 3.0 | 8.0 | 0.00 | 0.00 | 0.00 | 82 | 1012.0 |
| 20260510080017 | 71 | 158 | 1.0 | 4.0 | 0.00 | 0.00 | 0.00 | 82 | 1012.1 |
| 20260510075537 | 72 | 158 | 1.0 | 6.0 | 0.00 | 0.00 | 0.00 | 82 | 1012.2 |
| 20260510075056 | 72 | 203 | 1.0 | 3.0 | 0.00 | 0.00 | 0.00 | 81 | 1012.3 |
| 20260510074516 | 72 | 203 | 1.0 | 4.0 | 0.00 | 0.00 | 0.00 | 81 | 1012.1 |
| 20260510074016 | 72 | 203 | 1.0 | 6.0 | 0.00 | 0.00 | 0.00 | 81 | 1012.1 |
| 20260510073516 | 72 | 203 | 1.0 | 4.0 | 0.00 | 0.00 | 0.00 | 80 | 1012.1 |
| 20260510073016 | 72 | 180 | 1.0 | 4.0 | 0.00 | 0.00 | 0.00 | 80 | 1012.1 |
| 20260510072516 | 72 | 180 | 2.0 | 7.0 | 0.00 | 0.00 | 0.00 | 80 | 1012.2 |
| 20260510072016 | 73 | 180 | 1.0 | 4.0 | 0.00 | 0.00 | 0.00 | 79 | 1012.3 |
| 20260510071516 | 73 | 180 | 2.0 | 8.0 | 0.00 | 0.00 | 0.00 | 79 | 1012.3 |
| 20260510071016 | 73 | 158 | 3.0 | 7.0 | 0.00 | 0.00 | 0.00 | 79 | 1012.3 |
| 20260510070516 | 73 | 135 | 2.0 | 7.0 | 0.00 | 0.00 | 0.00 | 79 | 1012.2 |
| 20260510070016 | 73 | 158 | 4.0 | 10.0 | 0.00 | 0.00 | 0.00 | 78 | 1012.3 |
| 20260510065516 | 73 | 158 | 4.0 | 8.0 | 0.00 | 0.00 | 0.00 | 78 | 1012.2 |
| 20260510065017 | 73 | 158 | 2.0 | 8.0 | 0.00 | 0.00 | 0.00 | 78 | 1012.1 |
| 20260510064516 | 73 | 158 | 2.0 | 8.0 | 0.00 | 0.00 | 0.00 | 78 | 1012.0 |
| 20260510064016 | 73 | 180 | 2.0 | 6.0 | 0.00 | 0.00 | 0.00 | 77 | 1012.0 |
| 20260510063516 | 73 | 158 | 2.0 | 7.0 | 0.00 | 0.00 | 0.00 | 77 | 1012.1 |
| 20260510063036 | 73 | 158 | 3.0 | 7.0 | 0.00 | 0.00 | 0.00 | 77 | 1012.0 |
| 20260510062516 | 74 | 158 | 2.0 | 7.0 | 0.00 | 0.00 | 0.00 | 76 | 1012.0 |
| 20260510062016 | 74 | 158 | 2.0 | 8.0 | 0.00 | 0.00 | 0.00 | 75 | 1012.1 |
| 20260510061516 | 74 | 158 | 1.0 | 8.0 | 0.00 | 0.00 | 0.00 | 75 | 1012.1 |
| 20260510061016 | 74 | 158 | 2.0 | 7.0 | 0.00 | 0.00 | 0.00 | 75 | 1012.1 |
| 20260510060516 | 74 | 158 | 2.0 | 7.0 | 0.00 | 0.00 | 0.00 | 75 | 1012.1 |
| 20260510060016 | 74 | 158 | 3.0 | 11.0 | 0.00 | 0.00 | 0.00 | 75 | 1012.2 |
| 20260510055516 | 74 | 158 | 3.0 | 8.0 | 0.00 | 0.00 | 0.00 | 75 | 1012.1 |
| 20260510055016 | 74 | 180 | 3.0 | 9.0 | 0.00 | 0.00 | 0.00 | 75 | 1012.1 |
| 20260510054516 | 74 | 158 | 1.0 | 4.0 | 0.00 | 0.00 | 0.00 | 76 | 1012.0 |
| 20260510054016 | 74 | 158 | 1.0 | 6.0 | 0.00 | 0.00 | 0.00 | 76 | 1011.9 |
| 20260510053536 | 74 | 158 | 1.0 | 6.0 | 0.00 | 0.00 | 0.00 | 77 | 1011.8 |
| 20260510053016 | 74 | 158 | 1.0 | 8.0 | 0.00 | 0.00 | 0.00 | 77 | 1011.7 |
| 20260510052516 | 74 | 158 | 1.0 | 4.0 | 0.00 | 0.00 | 0.00 | 78 | 1011.7 |
| 20260510052016 | 74 | 158 | 1.0 | 7.0 | 0.00 | 0.00 | 0.00 | 79 | 1011.8 |
| 20260510051536 | 74 | 158 | 2.0 | 6.0 | 0.00 | 0.00 | 0.00 | 80 | 1011.8 |
| 20260510051016 | 74 | 180 | 1.0 | 6.0 | 0.00 | 0.00 | 0.00 | 81 | 1011.8 |
| 20260510050536 | 74 | 158 | 1.0 | 5.0 | 0.00 | 0.00 | 0.00 | 81 | 1011.9 |
| 20260510050016 | 74 | 180 | 1.0 | 6.0 | 0.00 | 0.00 | 0.00 | 82 | 1011.9 |
| 20260510045516 | 74 | 180 | 1.0 | 5.0 | 0.00 | 0.00 | 0.00 | 82 | 1011.8 |
| 20260510045017 | 74 | 158 | 1.0 | 4.0 | 0.00 | 0.00 | 0.00 | 83 | 1011.9 |
| 20260510044557 | 74 | 158 | 1.0 | 3.0 | 0.00 | 0.00 | 0.00 | 83 | 1012.0 |
| 20260510044037 | 74 | 0.0 | 2.0 | 0.00 | 0.00 | 0.00 | 83 | 1012.0 | |
| 20260510043517 | 74 | 0.0 | 2.0 | 0.00 | 0.00 | 0.00 | 83 | 1011.9 | |
| 20260510043017 | 75 | 0.0 | 2.0 | 0.00 | 0.00 | 0.00 | 82 | 1012.0 | |
| 20260510042537 | 75 | 0.0 | 2.0 | 0.00 | 0.00 | 0.00 | 82 | 1011.9 | |
| 20260510042016 | 75 | 0.0 | 0.0 | 0.00 | 0.00 | 0.00 | 82 | 1011.9 | |
| 20260510041516 | 75 | 0.0 | 0.0 | 0.00 | 0.00 | 0.00 | 81 | 1011.9 | |
| 20260510041016 | 76 | 0.0 | 0.0 | 0.00 | 0.00 | 0.00 | 81 | 1011.9 | |
| 20260510040516 | 76 | 0.0 | 1.0 | 0.00 | 0.00 | 0.00 | 81 | 1011.8 | |
| 20260510040017 | 76 | 0.0 | 3.0 | 0.00 | 0.00 | 0.00 | 81 | 1011.8 | |
| 20260510035517 | 76 | 158 | 1.0 | 4.0 | 0.00 | 0.00 | 0.00 | 81 | 1011.8 |
| 20260510035016 | 76 | 158 | 1.0 | 3.0 | 0.00 | 0.00 | 0.00 | 80 | 1011.8 |
| 20260510034517 | 77 | 158 | 1.0 | 4.0 | 0.00 | 0.00 | 0.00 | 79 | 1011.7 |
| 20260510034016 | 77 | 158 | 1.0 | 3.0 | 0.00 | 0.00 | 0.00 | 79 | 1011.8 |
| 20260510033537 | 77 | 158 | 1.0 | 6.0 | 0.00 | 0.00 | 0.00 | 79 | 1011.8 |
| 20260510033016 | 77 | 158 | 1.0 | 6.0 | 0.00 | 0.00 | 0.00 | 78 | 1011.7 |
| 20260510032517 | 77 | 135 | 1.0 | 5.0 | 0.00 | 0.00 | 0.00 | 78 | 1011.6 |
| 20260510032016 | 77 | 158 | 2.0 | 5.0 | 0.00 | 0.00 | 0.00 | 78 | 1011.6 |
| 20260510031517 | 78 | 158 | 2.0 | 4.0 | 0.00 | 0.00 | 0.00 | 77 | 1011.6 |
| 20260510031036 | 78 | 0.0 | 3.0 | 0.00 | 0.00 | 0.00 | 76 | 1011.6 | |
| 20260510030516 | 78 | 158 | 1.0 | 7.0 | 0.00 | 0.00 | 0.00 | 76 | 1011.3 |
| 20260510030016 | 78 | 158 | 1.0 | 4.0 | 0.00 | 0.00 | 0.00 | 75 | 1011.4 |
| 20260510025516 | 78 | 135 | 1.0 | 7.0 | 0.00 | 0.00 | 0.00 | 75 | 1011.5 |
| 20260510025037 | 78 | 158 | 1.0 | 3.0 | 0.00 | 0.00 | 0.00 | 74 | 1011.4 |
| 20260510024537 | 78 | 158 | 1.0 | 5.0 | 0.00 | 0.00 | 0.00 | 74 | 1011.2 |
| 20260510024017 | 77 | 135 | 1.0 | 4.0 | 0.00 | 0.00 | 0.00 | 74 | 1011.1 |
| 20260510023517 | 77 | 135 | 1.0 | 4.0 | 0.00 | 0.00 | 0.00 | 73 | 1011.0 |
| 20260510023016 | 77 | 0.0 | 0.0 | 0.00 | 0.00 | 0.00 | 73 | 1011.0 | |
| 20260510022516 | 78 | 0.0 | 0.0 | 0.00 | 0.00 | 0.00 | 72 | 1010.9 | |
| 20260510022017 | 78 | 0.0 | 1.0 | 0.00 | 0.00 | 0.00 | 72 | 1010.8 | |
| 20260510021537 | 78 | 0.0 | 1.0 | 0.00 | 0.00 | 0.00 | 72 | 1010.6 | |
| 20260510021017 | 78 | 0.0 | 2.0 | 0.00 | 0.00 | 0.00 | 71 | 1010.4 | |
| 20260510020557 | 79 | 0.0 | 2.0 | 0.00 | 0.00 | 0.00 | 70 | 1010.4 | |
| 20260510020016 | 79 | 135 | 1.0 | 3.0 | 0.00 | 0.00 | 0.00 | 70 | 1010.3 |
| 20260510015516 | 79 | 135 | 1.0 | 4.0 | 0.00 | 0.00 | 0.00 | 69 | 1010.2 |
| 20260510015016 | 80 | 135 | 1.0 | 3.0 | 0.00 | 0.00 | 0.00 | 68 | 1010.1 |
| 20260510014536 | 80 | 135 | 1.0 | 3.0 | 0.00 | 0.00 | 0.00 | 68 | 1010.1 |
| 20260510014017 | 80 | 135 | 1.0 | 4.0 | 0.00 | 0.00 | 0.00 | 67 | 1010.2 |
| 20260510013618 | 80 | 135 | 1.0 | 5.0 | 0.00 | 0.00 | 0.00 | 67 | 1010.0 |
| 20260510013016 | 81 | 135 | 1.0 | 4.0 | 0.00 | 0.00 | 0.00 | 66 | 1010.0 |
| 20260510012516 | 81 | 135 | 1.0 | 4.0 | 0.00 | 0.00 | 0.00 | 66 | 1010.1 |
| 20260510012016 | 81 | 135 | 1.0 | 4.0 | 0.00 | 0.00 | 0.00 | 65 | 1010.0 |
| 20260510011516 | 82 | 135 | 2.0 | 8.0 | 0.00 | 0.00 | 0.00 | 65 | 1010.1 |
| 20260510011016 | 82 | 135 | 1.0 | 6.0 | 0.00 | 0.00 | 0.00 | 65 | 1010.1 |
| 20260510010516 | 82 | 135 | 1.0 | 4.0 | 0.00 | 0.00 | 0.00 | 64 | 1010.1 |
| 20260510010037 | 83 | 135 | 1.0 | 7.0 | 0.00 | 0.00 | 0.00 | 64 | 1010.1 |
| 20260510005516 | 83 | 135 | 2.0 | 7.0 | 0.00 | 0.00 | 0.00 | 63 | 1010.0 |
| 20260510005016 | 83 | 135 | 1.0 | 5.0 | 0.00 | 0.00 | 0.00 | 63 | 1009.8 |
| 20260510004516 | 83 | 135 | 3.0 | 9.0 | 0.00 | 0.00 | 0.00 | 62 | 1010.0 |
| 20260510004016 | 84 | 135 | 1.0 | 7.0 | 0.00 | 0.00 | 0.00 | 60 | 1009.8 |
| 20260510003516 | 84 | 113 | 2.0 | 5.0 | 0.00 | 0.00 | 0.00 | 60 | 1009.8 |
| 20260510003016 | 84 | 135 | 2.0 | 7.0 | 0.00 | 0.00 | 0.00 | 59 | 1009.7 |
| 20260510002516 | 84 | 135 | 2.0 | 8.0 | 0.00 | 0.00 | 0.00 | 59 | 1009.7 |
| 20260510002057 | 85 | 135 | 1.0 | 4.0 | 0.00 | 0.00 | 0.00 | 59 | 1009.7 |
| 20260510001516 | 85 | 135 | 2.0 | 8.0 | 0.00 | 0.00 | 0.00 | 58 | 1009.9 |
| 20260510001016 | 85 | 113 | 2.0 | 6.0 | 0.00 | 0.00 | 0.00 | 58 | 1009.7 |
| 20260510000516 | 85 | 90 | 3.0 | 6.0 | 0.00 | 0.00 | 0.00 | 57 | 1009.7 |
| 20260510000016 | 85 | 135 | 2.0 | 7.0 | 0.00 | 0.00 | 0.00 | 57 | 1009.6 |
| 20260509235536 | 86 | 135 | 2.0 | 5.0 | 0.00 | 0.00 | 0.00 | 57 | 1009.6 |
| 20260509235016 | 86 | 90 | 2.0 | 5.0 | 0.00 | 0.00 | 0.00 | 56 | 1009.4 |
| 20260509234516 | 86 | 90 | 3.0 | 6.0 | 0.00 | 0.00 | 0.00 | 55 | 1009.3 |
| 20260509234016 | 86 | 90 | 2.0 | 8.0 | 0.00 | 0.00 | 0.00 | 56 | 1009.4 |
| 20260509233516 | 86 | 135 | 2.0 | 8.0 | 0.00 | 0.00 | 0.00 | 55 | 1009.3 |
| 20260509233016 | 86 | 90 | 2.0 | 7.0 | 0.00 | 0.00 | 0.00 | 55 | 1009.4 |
| 20260509232516 | 87 | 113 | 2.0 | 5.0 | 0.00 | 0.00 | 0.00 | 54 | 1009.3 |
| 20260509232021 | 87 | 90 | 2.0 | 5.0 | 0.00 | 0.00 | 0.00 | 55 | 1009.3 |
| 20260509231516 | 87 | 113 | 1.0 | 7.0 | 0.00 | 0.00 | 0.00 | 55 | 1009.2 |
| 20260509231016 | 87 | 90 | 3.0 | 8.0 | 0.00 | 0.00 | 0.00 | 54 | 1009.3 |
| 20260509230516 | 87 | 135 | 3.0 | 8.0 | 0.00 | 0.00 | 0.00 | 53 | 1009.2 |
| 20260509230016 | 87 | 135 | 4.0 | 9.0 | 0.00 | 0.00 | 0.00 | 54 | 1009.2 |
| 20260509225516 | 87 | 158 | 2.0 | 9.0 | 0.00 | 0.00 | 0.00 | 53 | 1009.2 |
| 20260509225016 | 88 | 158 | 1.0 | 3.0 | 0.00 | 0.00 | 0.00 | 52 | 1009.2 |
| 20260509224516 | 88 | 158 | 1.0 | 3.0 | 0.00 | 0.00 | 0.00 | 51 | 1009.3 |
| 20260509224016 | 88 | 158 | 2.0 | 6.0 | 0.00 | 0.00 | 0.00 | 51 | 1009.3 |
| 20260509223516 | 88 | 135 | 1.0 | 3.0 | 0.00 | 0.00 | 0.00 | 51 | 1009.3 |
| 20260509223016 | 88 | 113 | 2.0 | 5.0 | 0.00 | 0.00 | 0.00 | 50 | 1009.3 |
| 20260509222516 | 88 | 158 | 1.0 | 4.0 | 0.00 | 0.00 | 0.00 | 50 | 1009.1 |
| 20260509222016 | 88 | 158 | 1.0 | 4.0 | 0.00 | 0.00 | 0.00 | 53 | 1009.2 |
| 20260509221516 | 89 | 158 | 1.0 | 5.0 | 0.00 | 0.00 | 0.00 | 51 | 1009.4 |
| 20260509221036 | 88 | 158 | 1.0 | 3.0 | 0.00 | 0.00 | 0.00 | 52 | 1009.3 |
| 20260509220516 | 88 | 158 | 1.0 | 3.0 | 0.00 | 0.00 | 0.00 | 52 | 1009.3 |
| 20260509220016 | 88 | 0.0 | 3.0 | 0.00 | 0.00 | 0.00 | 54 | 1009.4 | |
| 20260509215516 | 88 | 0.0 | 1.0 | 0.00 | 0.00 | 0.00 | 53 | 1009.4 | |
| 20260509215016 | 88 | 0.0 | 2.0 | 0.00 | 0.00 | 0.00 | 53 | 1009.3 | |
| 20260509214516 | 88 | 23 | 1.0 | 3.0 | 0.00 | 0.00 | 0.00 | 52 | 1009.5 |
| 20260509214016 | 88 | 0.0 | 2.0 | 0.00 | 0.00 | 0.00 | 53 | 1009.5 | |
| 20260509213536 | 89 | 23 | 1.0 | 2.0 | 0.00 | 0.00 | 0.00 | 50 | 1009.7 |
| 20260509213016 | 88 | 0.0 | 2.0 | 0.00 | 0.00 | 0.00 | 53 | 1009.7 | |
| 20260509212536 | 88 | 23 | 3.0 | 6.0 | 0.00 | 0.00 | 0.00 | 52 | 1009.7 |
| 20260509212016 | 88 | 68 | 2.0 | 8.0 | 0.00 | 0.00 | 0.00 | 52 | 1009.8 |
| 20260509211516 | 88 | 68 | 3.0 | 6.0 | 0.00 | 0.00 | 0.00 | 51 | 1009.9 |
| 20260509211016 | 89 | 90 | 3.0 | 7.0 | 0.00 | 0.00 | 0.00 | 50 | 1010.0 |
| 20260509210516 | 89 | 90 | 2.0 | 5.0 | 0.00 | 0.00 | 0.00 | 52 | 1010.2 |
| 20260509210016 | 88 | 113 | 1.0 | 5.0 | 0.00 | 0.00 | 0.00 | 52 | 1010.2 |
| 20260509205516 | 89 | 113 | 1.0 | 5.0 | 0.00 | 0.00 | 0.00 | 50 | 1010.3 |
| 20260509205016 | 88 | 113 | 2.0 | 7.0 | 0.00 | 0.00 | 0.00 | 51 | 1010.4 |
| 20260509204516 | 87 | 180 | 1.0 | 4.0 | 0.00 | 0.00 | 0.00 | 53 | 1010.5 |
| 20260509204016 | 87 | 180 | 2.0 | 5.0 | 0.00 | 0.00 | 0.00 | 52 | 1010.5 |
| 20260509203516 | 87 | 180 | 2.0 | 5.0 | 0.00 | 0.00 | 0.00 | 51 | 1010.5 |
| 20260509203036 | 87 | 180 | 3.0 | 9.0 | 0.00 | 0.00 | 0.00 | 49 | 1010.6 |
| 20260509202516 | 87 | 135 | 4.0 | 10.0 | 0.00 | 0.00 | 0.00 | 46 | 1010.7 |
| 20260509202016 | 86 | 158 | 4.0 | 9.0 | 0.00 | 0.00 | 0.00 | 50 | 1010.7 |
| 20260509201516 | 87 | 158 | 4.0 | 11.0 | 0.00 | 0.00 | 0.00 | 48 | 1010.9 |
| 20260509201015 | 89 | 90 | 3.0 | 11.0 | 0.00 | 0.00 | 0.00 | 50 | 1011.2 |
| 20260509200515 | 90 | 90 | 2.0 | 5.0 | 0.00 | 0.00 | 0.00 | 52 | 1011.5 |
| 20260509200015 | 90 | 68 | 2.0 | 5.0 | 0.00 | 0.00 | 0.00 | 50 | 1011.4 |
| 20260509195516 | 91 | 68 | 3.0 | 7.0 | 0.00 | 0.00 | 0.00 | 50 | 1011.4 |
| 20260509195015 | 90 | 45 | 1.0 | 4.0 | 0.00 | 0.00 | 0.00 | 53 | 1011.4 |
| 20260509194516 | 89 | 23 | 3.0 | 5.0 | 0.00 | 0.00 | 0.00 | 53 | 1011.3 |
| 20260509194015 | 89 | 23 | 2.0 | 8.0 | 0.00 | 0.00 | 0.00 | 57 | 1011.3 |
| 20260509193516 | 88 | 23 | 4.0 | 8.0 | 0.00 | 0.00 | 0.00 | 52 | 1011.3 |
| 20260509193016 | 88 | 23 | 4.0 | 11.0 | 0.00 | 0.00 | 0.00 | 54 | 1011.4 |
| 20260509192516 | 88 | 338 | 4.0 | 11.0 | 0.00 | 0.00 | 0.00 | 56 | 1011.4 |
| 20260509192016 | 87 | 0 | 4.0 | 10.0 | 0.00 | 0.00 | 0.00 | 58 | 1011.3 |
| 20260509191536 | 88 | 23 | 5.0 | 10.0 | 0.00 | 0.00 | 0.00 | 56 | 1011.4 |
| 20260509191036 | 87 | 23 | 4.0 | 10.0 | 0.00 | 0.00 | 0.00 | 59 | 1011.3 |
| 20260509190515 | 87 | 23 | 5.0 | 11.0 | 0.00 | 0.00 | 0.00 | 59 | 1011.4 |
| 20260509190056 | 87 | 23 | 4.0 | 9.0 | 0.00 | 0.00 | 0.00 | 63 | 1011.5 |
| 20260509185516 | 86 | 23 | 5.0 | 11.0 | 0.00 | 0.00 | 0.00 | 65 | 1011.6 |
| 20260509185016 | 86 | 23 | 6.0 | 10.0 | 0.00 | 0.00 | 0.00 | 65 | 1011.8 |
| 20260509184555 | 85 | 23 | 5.0 | 11.0 | 0.00 | 0.00 | 0.00 | 66 | 1011.8 |
| 20260509184016 | 85 | 338 | 4.0 | 10.0 | 0.00 | 0.00 | 0.00 | 69 | 1011.8 |
| 20260509183516 | 84 | 45 | 4.0 | 10.0 | 0.00 | 0.00 | 0.00 | 71 | 1011.9 |
| 20260509183016 | 83 | 23 | 6.0 | 11.0 | 0.00 | 0.00 | 0.00 | 70 | 1011.9 |